Time,TemperatureF,DewpointF,PressureIn,WindDirection,WindDirectionDegrees,WindSpeedMPH,WindSpeedGustMPH,Humidity,HourlyPrecipIn,Conditions,Clouds,dailyrainin,SoftwareType,DateUTC
2013-08-11 00:17:00,55.0,38.0,-100.00,WSW,250,2.0,11.0,52,0.00,,,0.01,,2013-08-11 06:17:00,
2013-08-11 00:25:00,55.0,38.0,-100.00,WSW,250,2.0,11.0,52,0.00,,,0.01,,2013-08-11 06:25:00,
2013-08-11 00:34:00,55.0,38.0,-100.00,WSW,250,2.0,11.0,52,0.00,,,0.01,,2013-08-11 06:34:00,
2013-08-11 00:42:00,52.0,39.0,-100.00,SE,142,2.0,6.0,60,0.00,,,0.01,,2013-08-11 06:42:00,
2013-08-11 01:14:00,52.0,39.0,-100.00,SE,142,2.0,6.0,60,0.00,,,0.01,,2013-08-11 07:14:00,
2013-08-11 01:36:00,52.0,39.0,-100.00,SE,142,2.0,6.0,60,0.00,,,0.01,,2013-08-11 07:36:00,
2013-08-11 02:16:00,50.0,37.0,-100.00,SSE,165,4.0,5.0,60,0.00,,,0.01,,2013-08-11 08:16:00,
2013-08-11 02:25:00,50.0,37.0,-100.00,SSE,165,4.0,5.0,60,0.00,,,0.01,,2013-08-11 08:25:00,
2013-08-11 02:34:00,50.0,37.0,-100.00,SSE,165,4.0,5.0,60,0.00,,,0.01,,2013-08-11 08:34:00,
2013-08-11 02:42:00,52.0,37.0,-100.00,South,173,6.0,9.0,57,0.00,,,0.01,,2013-08-11 08:42:00,
2013-08-11 03:06:00,52.0,37.0,-100.00,South,173,6.0,9.0,57,0.00,,,0.01,,2013-08-11 09:06:00,
2013-08-11 03:14:00,52.0,37.0,-100.00,South,173,6.0,9.0,57,0.00,,,0.01,,2013-08-11 09:14:00,
2013-08-11 03:26:00,52.0,37.0,-100.00,South,173,6.0,9.0,57,0.00,,,0.01,,2013-08-11 09:26:00,
2013-08-11 03:34:00,52.0,37.0,-100.00,South,173,6.0,9.0,57,0.00,,,0.01,,2013-08-11 09:34:00,
2013-08-11 03:42:00,51.0,36.0,-100.00,South,169,5.0,8.0,57,0.00,,,0.01,,2013-08-11 09:42:00,
2013-08-11 04:05:00,51.0,36.0,-100.00,South,169,5.0,8.0,57,0.00,,,0.01,,2013-08-11 10:05:00,
2013-08-11 04:27:00,51.0,36.0,-100.00,South,169,5.0,8.0,57,0.00,,,0.01,,2013-08-11 10:27:00,
2013-08-11 04:34:00,51.0,36.0,-100.00,South,169,5.0,8.0,57,0.00,,,0.01,,2013-08-11 10:34:00,
2013-08-11 04:42:00,51.0,37.0,-100.00,South,169,4.0,8.0,58,0.00,,,-99.99,,2013-08-11 10:42:00,
2013-08-11 05:24:00,51.0,37.0,-100.00,South,169,4.0,8.0,58,0.00,,,-99.99,,2013-08-11 11:24:00,
2013-08-11 05:36:00,51.0,37.0,-100.00,South,169,4.0,8.0,58,0.00,,,-99.99,,2013-08-11 11:36:00,
2013-08-11 05:42:00,51.0,36.0,-100.00,South,176,5.0,12.0,56,0.00,,,-99.99,,2013-08-11 11:42:00,
2013-08-11 06:14:00,51.0,36.0,-100.00,South,176,5.0,12.0,56,0.00,,,-99.99,,2013-08-11 12:14:00,
2013-08-11 06:27:00,51.0,36.0,-100.00,South,176,5.0,12.0,56,0.00,,,-99.99,,2013-08-11 12:27:00,
2013-08-11 06:36:00,51.0,36.0,-100.00,South,176,5.0,12.0,56,0.00,,,-99.99,,2013-08-11 12:36:00,
2013-08-11 06:42:00,50.0,36.0,-100.00,SSE,166,4.0,8.0,59,0.01,,,-99.99,,2013-08-11 12:42:00,
2013-08-11 07:16:00,50.0,36.0,-100.00,SSE,166,4.0,8.0,59,0.01,,,-99.99,,2013-08-11 13:16:00,
2013-08-11 07:24:00,50.0,36.0,-100.00,SSE,166,4.0,8.0,59,0.01,,,-99.99,,2013-08-11 13:24:00,
2013-08-11 07:38:00,50.0,36.0,-100.00,SSE,166,4.0,8.0,59,0.01,,,-99.99,,2013-08-11 13:38:00,
2013-08-11 07:42:00,57.0,38.0,-100.00,SSE,150,5.0,12.0,48,0.00,,,0.02,,2013-08-11 13:42:00,
2013-08-11 08:34:00,57.0,38.0,-100.00,SSE,150,5.0,12.0,48,0.00,,,0.02,,2013-08-11 14:34:00,
2013-08-11 08:42:00,62.0,39.0,-100.00,SSE,159,5.0,10.0,43,0.00,,,0.02,,2013-08-11 14:42:00,
2013-08-11 09:36:00,62.0,39.0,-100.00,SSE,159,5.0,10.0,43,0.00,,,0.02,,2013-08-11 15:36:00,
2013-08-11 10:13:00,65.0,39.0,-100.00,South,189,5.0,16.0,39,0.00,,,0.02,,2013-08-11 16:13:00,
2013-08-11 10:26:00,65.0,39.0,-100.00,South,189,5.0,16.0,39,0.00,,,0.02,,2013-08-11 16:26:00,
2013-08-11 10:37:00,65.0,39.0,-100.00,South,189,5.0,16.0,39,0.00,,,0.02,,2013-08-11 16:37:00,
2013-08-11 10:42:00,67.0,39.0,-100.00,South,190,5.0,11.0,36,0.00,,,0.02,,2013-08-11 16:42:00,
2013-08-11 11:07:00,67.0,39.0,-100.00,South,190,5.0,11.0,36,0.00,,,0.02,,2013-08-11 17:07:00,
2013-08-11 11:25:00,67.0,39.0,-100.00,South,190,5.0,11.0,36,0.00,,,0.02,,2013-08-11 17:25:00,
2013-08-11 11:34:00,67.0,39.0,-100.00,South,190,5.0,11.0,36,0.00,,,0.02,,2013-08-11 17:34:00,
2013-08-11 11:42:00,70.0,38.0,-100.00,SSW,201,5.0,10.0,31,0.00,,,0.02,,2013-08-11 17:42:00,
2013-08-11 12:05:00,70.0,38.0,-100.00,SSW,201,5.0,10.0,31,0.00,,,0.02,,2013-08-11 18:05:00,
2013-08-11 12:17:00,70.0,38.0,-100.00,SSW,201,5.0,10.0,31,0.00,,,0.02,,2013-08-11 18:17:00,
2013-08-11 12:25:00,70.0,38.0,-100.00,SSW,201,5.0,10.0,31,0.00,,,0.02,,2013-08-11 18:25:00,
2013-08-11 12:37:00,70.0,38.0,-100.00,SSW,201,5.0,10.0,31,0.00,,,0.02,,2013-08-11 18:37:00,
2013-08-11 12:42:00,72.0,36.0,-100.00,West,267,5.0,12.0,27,0.00,,,0.02,,2013-08-11 18:42:00,
2013-08-11 13:06:00,72.0,36.0,-100.00,West,267,5.0,12.0,27,0.00,,,0.02,,2013-08-11 19:06:00,
2013-08-11 13:14:00,72.0,36.0,-100.00,West,267,5.0,12.0,27,0.00,,,0.02,,2013-08-11 19:14:00,
2013-08-11 13:24:00,72.0,36.0,-100.00,West,267,5.0,12.0,27,0.00,,,0.02,,2013-08-11 19:24:00,
2013-08-11 13:33:00,72.0,36.0,-100.00,West,267,5.0,12.0,27,0.00,,,0.02,,2013-08-11 19:33:00,
2013-08-11 13:42:00,71.0,36.0,-100.00,WNW,291,4.0,13.0,28,0.00,,,0.02,,2013-08-11 19:42:00,
2013-08-11 14:17:00,71.0,36.0,-100.00,WNW,291,4.0,13.0,28,0.00,,,0.02,,2013-08-11 20:17:00,
2013-08-11 14:26:00,71.0,36.0,-100.00,WNW,291,4.0,13.0,28,0.00,,,0.02,,2013-08-11 20:26:00,
2013-08-11 14:37:00,71.0,36.0,-100.00,WNW,291,4.0,13.0,28,0.00,,,0.02,,2013-08-11 20:37:00,
2013-08-11 14:42:00,68.0,37.0,-100.00,NE,42,3.0,11.0,32,0.01,,,0.02,,2013-08-11 20:42:00,
2013-08-11 15:06:00,68.0,37.0,-100.00,NE,42,3.0,11.0,32,0.01,,,0.02,,2013-08-11 21:06:00,
2013-08-11 15:13:00,68.0,37.0,-100.00,NE,42,3.0,11.0,32,0.01,,,0.02,,2013-08-11 21:13:00,
2013-08-11 15:33:00,68.0,37.0,-100.00,NE,42,3.0,11.0,32,0.01,,,0.02,,2013-08-11 21:33:00,
2013-08-11 16:42:00,64.0,40.0,-100.00,SSE,155,6.0,14.0,41,0.00,,,0.05,,2013-08-11 22:42:00,
2013-08-11 17:15:00,64.0,40.0,-100.00,SSE,155,6.0,14.0,41,0.00,,,0.05,,2013-08-11 23:15:00,
2013-08-11 17:27:00,64.0,40.0,-100.00,SSE,155,6.0,14.0,41,0.00,,,0.05,,2013-08-11 23:27:00,
2013-08-11 17:34:00,64.0,40.0,-100.00,SSE,155,6.0,14.0,41,0.00,,,0.05,,2013-08-11 23:34:00,
2013-08-11 17:42:00,61.0,42.0,-100.00,West,276,6.0,19.0,49,0.00,,,0.05,,2013-08-11 23:42:00,
2013-08-11 18:04:00,61.0,42.0,-100.00,West,276,6.0,19.0,49,0.00,,,0.05,,2013-08-12 00:04:00,
2013-08-11 18:16:00,61.0,42.0,-100.00,West,276,6.0,19.0,49,0.00,,,0.05,,2013-08-12 00:16:00,
2013-08-11 18:23:00,61.0,42.0,-100.00,West,276,6.0,19.0,49,0.00,,,0.05,,2013-08-12 00:23:00,
2013-08-11 18:35:00,61.0,42.0,-100.00,West,276,6.0,19.0,49,0.00,,,0.05,,2013-08-12 00:35:00,
2013-08-11 18:42:00,66.0,39.0,-100.00,WSW,252,2.0,11.0,37,0.00,,,0.05,,2013-08-12 00:42:00,
2013-08-11 19:05:00,66.0,39.0,-100.00,WSW,252,2.0,11.0,37,0.00,,,0.05,,2013-08-12 01:05:00,
2013-08-11 19:13:00,66.0,39.0,-100.00,WSW,252,2.0,11.0,37,0.00,,,0.05,,2013-08-12 01:13:00,
2013-08-11 19:24:00,66.0,39.0,-100.00,WSW,252,2.0,11.0,37,0.00,,,0.05,,2013-08-12 01:24:00,
2013-08-11 19:42:00,62.0,36.0,-100.00,South,186,3.0,6.0,38,0.00,,,0.05,,2013-08-12 01:42:00,
2013-08-11 20:14:00,62.0,36.0,-100.00,South,186,3.0,6.0,38,0.00,,,0.05,,2013-08-12 02:14:00,
2013-08-11 20:23:00,62.0,36.0,-100.00,South,186,3.0,6.0,38,0.00,,,0.05,,2013-08-12 02:23:00,
2013-08-11 20:35:00,62.0,36.0,-100.00,South,186,3.0,6.0,38,0.00,,,0.05,,2013-08-12 02:35:00,
2013-08-11 20:42:00,57.0,36.0,-100.00,South,173,3.0,6.0,45,0.00,,,0.05,,2013-08-12 02:42:00,
2013-08-11 21:14:00,57.0,36.0,-100.00,South,173,3.0,6.0,45,0.00,,,0.05,,2013-08-12 03:14:00,
2013-08-11 21:25:00,57.0,36.0,-100.00,South,173,3.0,6.0,45,0.00,,,0.05,,2013-08-12 03:25:00,
2013-08-11 21:37:00,57.0,36.0,-100.00,South,173,3.0,6.0,45,0.00,,,0.05,,2013-08-12 03:37:00,
2013-08-11 21:42:00,55.0,36.0,-100.00,South,179,4.0,7.0,48,0.00,,,0.05,,2013-08-12 03:42:00,
2013-08-11 22:02:00,55.0,36.0,-100.00,South,179,4.0,7.0,48,0.00,,,0.05,,2013-08-12 04:02:00,
2013-08-11 22:12:00,55.0,36.0,-100.00,South,179,4.0,7.0,48,0.00,,,0.05,,2013-08-12 04:12:00,
2013-08-11 22:22:00,55.0,36.0,-100.00,South,179,4.0,7.0,48,0.00,,,0.05,,2013-08-12 04:22:00,
2013-08-11 22:33:00,55.0,36.0,-100.00,South,179,4.0,7.0,48,0.00,,,0.05,,2013-08-12 04:33:00,
2013-08-11 22:42:00,53.0,36.0,-100.00,South,181,4.0,6.0,52,0.00,,,0.05,,2013-08-12 04:42:00,
2013-08-11 23:02:00,53.0,36.0,-100.00,South,181,4.0,6.0,52,0.00,,,0.05,,2013-08-12 05:02:00,
2013-08-11 23:11:00,53.0,36.0,-100.00,South,181,4.0,6.0,52,0.00,,,0.05,,2013-08-12 05:11:00,
2013-08-11 23:22:00,53.0,36.0,-100.00,South,181,4.0,6.0,52,0.00,,,0.05,,2013-08-12 05:22:00,
2013-08-11 23:32:00,53.0,36.0,-100.00,South,181,4.0,6.0,52,0.00,,,0.05,,2013-08-12 05:32:00,
2013-08-11 23:42:00,52.0,36.0,-100.00,South,177,4.0,5.0,54,0.00,,,0.05,,2013-08-12 05:42:00,